loading
DOY 175 | 2024-06-23T11:40:44Z

APEX ARIES 1, 59129

Orbit data source: Space-Track

APEX ARIES 1, 59129 is a payload satellite owned by Apex (US) in LEO that was launched on Mon, 04 Mar 2024 UTC via a Falcon 9 launch vehicle from the Air Force Western Test Range (AFWTR). Aries 1 is the flagship mission for Apex’s Aries standardized satellite bus platform, carrying a “selfie camera” as well a handful of hosted payloads. Apex’s standardized satellite bus platforms enable missions like Earth observation, communication networks, scientific research, and more!

Loading next visibility...
Loading greatness...
APEX ARIES 1 details
NORAD ID59129
COSPAR ID
2024-043AH
Orbit
LEO
Last TLE update14 hours ago
Origin
Flag of USApex (US)
ManufacturerApex
BusAries
MotorUnknown
Mass200 kg wet, 200 kg dry
Launch date (UTC)
2024-03-04 (4 months ago)
Launch vehicle
Falcon 9
Launch site
Air Force Western Test Range (AFWTR)
Object type
Payload
Rocket body
Debris
Radar Cross SectionMedium (>0.1 m² and <1 m²)
Predictive object data (real-time)
Latitude-57.71069°
Longitude74.0186°
Altitude523.747 km
Speed7.603 km/s
Apparent Right ascension13h 59m 33s
Apparent Declination-75° 25' 33"
Sunlit
Object is in full shadow
Predictive observer data (real-time)
Local Sidereal Time22:48:48
Azimuth196.367° SSW
Elevation-48.671°
Doppler factor1
Orbital elements
Apogee511.222 km
Perigee496.819 km
Semi-major axis6,882.157 km
Eccentricity0.0010464
Inclination97.4753°
RAAN298.7624°
Arg. of periapsis265.3603°
True anomaly94.7631°
Mean anomaly94.6436°
Mean motion3.80151 °/min
BSTAR0.00041922
Period94.7 mins
Definitive object data (Epoch: 2024-06-22T21:42:42.32Z)
Latitude-0.0001°
Longitude61.52478°
Altitude510.73 km
Speed7.608 km/s
True Right ascension19h 55m 02s
True Declination0° 00' 00"
Sunlit
Object was in full shadow at TLE epoch
TLE from 14 hours ago
0 APEX ARIES 1
1 59129U 24043AH  24174.90465649  .00008872  00000-0  41922-3 0  9996
2 59129  97.4753 298.7624 0010464 265.3603  94.6436 15.19599223 16680
Epoch: 2024-06-22T21:42Z
No data available

APEX ARIES 1 Visibility forecast

Observer location: 39.9160978°, -105.1181434, 0m alt.

APEX ARIES 1 is not visible in the next 10 days
Span
Click to sort rows by Start time (UTC) header in descending order
Start Az.
Max El. time (UTC)
Max El. Az.
Max El.
End time (UTC)
End Az.